GW6191 Weather Reports


time (UTC)temp
C
wind
direction
speed
KPH
gust
KPH
rain 1hr
cm
rain 24hr
cm
rain mn
cm
humidity
%
barometer
mb
20260506163511 12 11 8.0 17.7 0.00 0.03 0.03 81 1015.3
20260506163020 12 61 6.4 17.7 0.00 0.03 0.03 83 1015.3
20260506162507 12 352 9.7 17.7 0.00 0.03 0.03 83 1015.1
20260506162010 12 42 6.4 16.1 0.00 0.03 0.03 84 1014.8
20260506161529 11 360 6.4 22.5 0.00 0.03 0.03 84 1014.5
20260506161007 11 13 11.3 27.4 0.00 0.03 0.03 84 1014.4
20260506160508 11 12 12.9 27.4 0.03 0.03 0.03 84 1014.3
20260506160034 11 30 12.9 20.9 0.03 0.03 0.03 84 1014.4
20260506155509 11 13 11.3 20.9 0.03 0.03 0.03 85 1014.5
20260506155010 11 24 11.3 17.7 0.03 0.03 0.03 85 1015.0
20260506154521 11 15 6.4 9.7 0.03 0.03 0.03 86 1015.5
20260506154011 11 360 4.8 14.5 0.03 0.03 0.03 87 1015.6
20260506153504 11 9 6.4 24.1 0.03 0.03 0.03 87 1015.4
20260506153014 11 33 9.7 24.1 0.03 0.03 0.03 88 1014.2
20260506152508 11 342 9.7 22.5 0.03 0.03 0.03 88 1014.3
20260506152012 11 337 9.7 20.9 0.03 0.03 0.03 88 1015.0
20260506151527 11 9 8.0 14.5 0.03 0.03 0.03 88 1015.8
20260506151010 10 34 6.4 12.9 0.03 0.03 0.03 87 1016.3
20260506150516 10 331 8.0 14.5 0.00 0.00 0.00 87 1017.0
20260506150031 10 322 8.0 14.5 0.00 0.00 0.00 87 1016.8
20260506145507 10 326 6.4 9.7 0.00 0.00 0.00 87 1016.7
20260506145014 10 346 6.4 16.1 0.00 0.00 0.00 87 1016.8
20260506144525 10 328 1.6 17.7 0.00 0.00 0.00 87 1016.3
20260506144018 10 25 8.0 17.7 0.00 0.00 0.00 86 1015.5
20260506143516 11 321 8.0 17.7 0.00 0.00 0.00 86 1015.2
20260506143040 11 347 8.0 16.1 0.00 0.00 0.00 86 1015.2
20260506142509 11 10 6.4 14.5 0.00 0.00 0.00 86 1014.3
20260506142006 11 342 6.4 14.5 0.00 0.00 0.00 85 1014.5
20260506141518 11 352 8.0 14.5 0.00 0.00 0.00 84 1014.9
20260506141007 11 50 8.0 16.1 0.00 0.00 0.00 83 1015.5
20260506140508 11 342 8.0 16.1 0.00 0.00 0.00 83 1015.6
20260506140020 11 347 9.7 22.5 0.00 0.00 0.00 83 1015.3
20260506135509 11 342 9.7 22.5 0.00 0.00 0.00 83 1015.3
20260506135008 11 335 8.0 19.3 0.00 0.00 0.00 82 1015.3
20260506134519 11 337 9.7 16.1 0.00 0.00 0.00 82 1015.4
20260506134008 11 341 8.0 16.1 0.00 0.00 0.00 83 1014.8
20260506133511 11 45 4.8 16.1 0.00 0.00 0.00 83 1014.5
20260506133028 11 343 6.4 16.1 0.00 0.00 0.00 83 1014.4
20260506132513 11 347 8.0 16.1 0.00 0.00 0.00 83 1014.2
20260506132014 11 5 6.4 17.7 0.00 0.00 0.00 83 1014.2
20260506131530 11 330 8.0 17.7 0.00 0.00 0.00 83 1014.3
20260506131008 10 31 6.4 20.9 0.00 0.00 0.00 83 1014.3
20260506130509 10 58 11.3 20.9 0.00 0.00 0.00 83 1014.3
20260506130008 10 5 9.7 19.3 0.00 0.00 0.00 83 1013.9
20260506125505 10 31 9.7 19.3 0.00 0.00 0.00 83 1014.0
20260506125003 10 5 9.7 19.3 0.00 0.00 0.00 83 1013.9
20260506124503 11 350 6.4 17.7 0.00 0.00 0.00 83 1013.8
20260506124004 10 22 8.0 22.5 0.00 0.00 0.00 82 1013.6
20260506123505 10 342 9.7 20.9 0.00 0.00 0.00 82 1013.9
20260506123009 11 9 8.0 19.3 0.00 0.00 0.00 82 1013.9
20260506122504 11 44 11.3 17.7 0.00 0.00 0.00 82 1013.7
20260506122012 11 352 8.0 22.5 0.00 0.00 0.00 82 1013.8
20260506121514 11 352 11.3 22.5 0.00 0.00 0.00 81 1013.6
20260506121003 11 360 11.3 24.1 0.00 0.00 0.00 81 1013.5
20260506120510 11 11 9.7 24.1 0.00 0.00 0.00 81 1013.6
20260506120022 11 345 9.7 22.5 0.00 0.00 0.00 81 1013.8
20260506115508 11 19 8.0 17.7 0.00 0.00 0.00 81 1013.5
20260506115004 11 346 11.3 22.5 0.00 0.00 0.00 80 1013.6
20260506114519 11 348 11.3 22.5 0.00 0.00 0.00 79 1013.5
20260506114005 11 5 9.7 24.1 0.00 0.00 0.00 78 1013.4
20260506113504 11 348 14.5 24.1 0.00 0.00 0.00 77 1013.1
20260506113008 12 17 8.0 17.7 0.00 0.00 0.00 76 1013.1
20260506112506 12 15 4.8 20.9 0.00 0.00 0.00 76 1012.9
20260506112006 12 344 9.7 24.1 0.00 0.00 0.00 76 1012.9
20260506111509 12 40 12.9 20.9 0.00 0.00 0.00 75 1012.7
20260506111005 12 352 8.0 19.3 0.00 0.00 0.00 75 1012.5
20260506110511 12 352 8.0 20.9 0.00 0.00 0.00 75 1012.3
20260506110007 12 34 9.7 20.9 0.00 0.00 0.00 75 1012.4
20260506105506 12 326 8.0 24.1 0.00 0.00 0.00 75 1012.3
20260506105013 12 334 9.7 24.1 0.00 0.00 0.00 75 1012.3
20260506104520 12 352 14.5 24.1 0.00 0.00 0.00 75 1012.2
20260506104003 12 338 4.8 19.3 0.00 0.00 0.00 75 1012.2
20260506103506 12 5 8.0 19.3 0.00 0.00 0.00 75 1012.2
20260506103020 12 17 9.7 22.5 0.00 0.00 0.00 75 1012.1
20260506102503 12 19 8.0 24.1 0.00 0.00 0.00 75 1011.9
20260506102006 12 27 9.7 24.1 0.00 0.00 0.00 75 1011.9
20260506101506 12 360 12.9 22.5 0.00 0.00 0.00 75 1011.7
20260506101008 12 325 12.9 22.5 0.00 0.00 0.00 75 1011.6
20260506100502 12 340 11.3 22.5 0.00 0.00 0.00 75 1011.4
20260506100016 13 14 9.7 20.9 0.00 0.00 0.00 75 1011.5
20260506095506 13 5 8.0 16.1 0.00 0.00 0.00 75 1011.4
20260506095006 13 344 6.4 16.1 0.00 0.00 0.00 76 1011.3
20260506094516 13 50 4.8 16.1 0.00 0.00 0.00 76 1011.3
20260506094006 13 17 4.8 12.9 0.00 0.00 0.00 75 1011.3
20260506093514 13 352 4.8 20.9 0.00 0.00 0.00 76 1011.3
20260506093008 13 344 8.0 20.9 0.00 0.00 0.00 76 1011.4
20260506092507 13 30 9.7 17.7 0.00 0.00 0.00 76 1011.2
20260506092019 13 344 8.0 19.3 0.00 0.00 0.00 76 1011.1
20260506091528 13 338 11.3 19.3 0.00 0.00 0.00 76 1011.1
20260506091004 13 352 11.3 17.7 0.00 0.00 0.00 77 1011.1
20260506090504 13 19 9.7 17.7 0.00 0.00 0.00 76 1011.0
20260506090010 13 343 6.4 12.9 0.00 0.00 0.00 76 1011.2
20260506085502 13 352 4.8 11.3 0.00 0.00 0.00 76 1011.1
20260506085009 13 360 4.8 14.5 0.00 0.00 0.00 76 1011.0
20260506084519 13 26 8.0 20.9 0.00 0.00 0.00 76 1010.9
20260506084009 13 40 6.4 20.9 0.00 0.00 0.00 77 1010.8
20260506083504 13 346 9.7 19.3 0.00 0.00 0.00 77 1010.7
20260506083020 13 336 8.0 19.3 0.00 0.00 0.00 77 1010.7
20260506082508 13 346 11.3 19.3 0.00 0.00 0.00 77 1010.6
20260506082018 13 348 6.4 19.3 0.00 0.00 0.00 77 1010.7
20260506081515 13 331 11.3 19.3 0.00 0.00 0.00 77 1010.8
20260506081009 13 9 4.8 19.3 0.00 0.00 0.00 77 1010.7
20260506080516 13 344 11.3 19.3 0.00 0.00 0.00 77 1010.7
20260506073509 13 331 6.4 12.9 0.00 0.00 0.00 78 1010.8
20260506073022 13 336 6.4 12.9 0.00 0.00 0.00 78 1010.6
20260506072515 13 26 4.8 12.9 0.00 0.00 0.00 77 1010.3
20260506072008 13 11 4.8 11.3 0.00 0.00 0.00 77 1010.3
20260506071521 13 360 4.8 11.3 0.00 0.00 0.00 78 1010.2
20260506071010 13 344 6.4 12.9 0.00 0.00 0.00 77 1010.1
20260506070505 13 39 6.4 14.5 0.00 0.00 0.00 78 1010.1
20260506062511 14 341 8.0 17.7 0.00 0.00 0.00 78 1010.4
20260506062009 14 360 6.4 17.7 0.00 0.00 0.00 78 1010.4
20260506061522 14 342 8.0 16.1 0.00 0.00 0.00 78 1010.3
20260506061008 14 40 6.4 17.7 0.00 0.00 0.00 78 1010.2
20260506060511 14 342 8.0 17.7 0.00 0.00 0.00 78 1010.3
20260506051009 15 5 8.0 22.5 0.00 0.00 0.00 79 1010.5
20260506050514 15 348 11.3 19.3 0.00 0.00 0.00 78 1010.4
20260506045011 15 334 12.9 20.9 0.00 0.00 0.00 79 1010.4
20260506044528 15 338 8.0 17.7 0.00 0.00 0.00 78 1010.2
20260506044015 15 5 9.7 20.9 0.00 0.00 0.00 78 1010.2
20260506043513 16 36 6.4 20.9 0.00 0.00 0.00 78 1010.1
20260506043030 16 352 8.0 17.7 0.00 0.00 0.00 78 1010.1
20260506042505 16 15 9.7 19.3 0.00 0.00 0.00 78 1010.2
20260506042005 16 337 6.4 20.9 0.00 0.00 0.00 78 1010.2
20260506041517 16 337 8.0 20.9 0.00 0.00 0.00 77 1010.3
20260506041007 16 41 6.4 22.5 0.00 0.00 0.00 78 1010.3
20260506040505 16 345 11.3 22.5 0.00 0.00 0.00 77 1010.3
20260506040003 16 360 12.9 22.5 0.00 0.00 0.00 77 1010.2
20260506035503 16 349 11.3 20.9 0.00 0.00 0.00 77 1010.3
20260506035003 16 330 11.3 20.9 0.00 0.00 0.00 77 1010.1
20260506034504 16 30 8.0 24.1 0.00 0.00 0.00 77 1009.9
20260506034004 16 335 12.9 24.1 0.00 0.00 0.00 77 1009.9
20260506033504 17 360 6.4 17.7 0.00 0.00 0.00 77 1009.8
20260506033008 17 20 6.4 16.1 0.00 0.00 0.00 76 1009.7
20260506032503 17 323 8.0 20.9 0.00 0.00 0.00 77 1009.5
20260506032007 17 360 9.7 24.1 0.00 0.00 0.00 76 1009.3
20260506031523 17 38 11.3 24.1 0.00 0.00 0.00 75 1009.3
20260506031003 17 11 11.3 24.1 0.00 0.00 0.00 75 1009.4
20260506030504 17 348 11.3 24.1 0.00 0.00 0.00 75 1009.1
20260506030022 18 9 12.9 24.1 0.00 0.00 0.00 75 1009.2
20260506025508 18 346 8.0 19.3 0.00 0.00 0.00 75 1009.0
20260506025006 18 35 8.0 17.7 0.00 0.00 0.00 74 1009.0
20260506024505 18 18 6.4 17.7 0.00 0.00 0.00 74 1008.9
20260506024004 18 321 6.4 19.3 0.00 0.00 0.00 74 1008.7
20260506023505 18 31 8.0 19.3 0.00 0.00 0.00 74 1008.6
20260506023009 18 352 11.3 19.3 0.00 0.00 0.00 74 1008.6
20260506022505 18 352 6.4 19.3 0.00 0.00 0.00 73 1008.5
20260506022006 18 352 9.7 19.3 0.00 0.00 0.00 73 1008.5
20260506021507 18 27 12.9 19.3 0.00 0.00 0.00 73 1008.3
20260506021008 18 9 9.7 17.7 0.00 0.00 0.00 72 1008.2
20260506020510 18 339 8.0 17.7 0.00 0.00 0.00 72 1008.1
20260506020021 18 336 8.0 20.9 0.00 0.00 0.00 72 1007.8
20260506015504 18 352 11.3 20.9 0.00 0.00 0.00 72 1007.9
20260506015005 19 24 4.8 16.1 0.00 0.00 0.00 72 1007.9
20260506014525 19 337 6.4 16.1 0.00 0.00 0.00 72 1007.6
20260506014003 19 336 8.0 16.1 0.00 0.00 0.00 71 1007.4
20260506013503 19 352 8.0 16.1 0.00 0.00 0.00 70 1007.3
20260506013007 19 352 9.7 17.7 0.00 0.00 0.00 70 1007.4
20260506012506 19 31 6.4 17.7 0.00 0.00 0.00 71 1007.4
20260506012008 20 342 8.0 16.1 0.00 0.00 0.00 71 1007.2
20260506011511 20 32 6.4 12.9 0.00 0.00 0.00 71 1007.0
20260506011007 20 24 4.8 16.1 0.00 0.00 0.00 71 1007.1
20260506010502 20 346 6.4 16.1 0.00 0.00 0.00 70 1006.8
20260506010015 20 17 8.0 22.5 0.00 0.00 0.00 70 1006.7
20260506005506 21 325 9.7 24.1 0.00 0.00 0.00 70 1006.4
20260506005015 21 348 9.7 24.1 0.00 0.00 0.00 70 1006.3
20260506004513 21 46 11.3 20.9 0.00 0.00 0.00 70 1006.6
20260506004006 21 343 8.0 17.7 0.00 0.00 0.00 71 1006.6
20260506003513 21 360 8.0 24.1 0.00 0.00 0.00 70 1006.2
20260506003004 21 11 9.7 24.1 0.00 0.00 0.00 69 1005.8
20260506002502 21 344 16.1 24.1 0.00 0.00 0.00 69 1005.8
20260506002007 21 350 17.7 24.1 0.00 0.00 0.00 68 1005.9
20260506001506 22 350 12.9 24.1 0.00 0.00 0.00 68 1006.0
20260506001004 22 319 14.5 24.1 0.00 0.00 0.00 68 1006.0
20260506000507 22 328 11.3 22.5 0.00 0.00 0.00 68 1006.0
20260506000018 22 9 11.3 24.1 0.00 0.00 0.00 68 1005.9
20260505235514 22 337 14.5 24.1 0.00 0.00 0.00 66 1005.9
20260505235004 23 316 12.9 22.5 0.00 0.00 0.00 66 1005.9
20260505234519 23 360 11.3 20.9 0.00 0.00 0.00 66 1005.8
20260505234009 23 340 12.9 20.9 0.00 0.00 0.00 66 1005.9
20260505233506 23 343 9.7 22.5 0.00 0.00 0.00 65 1005.8
20260505233015 23 325 11.3 22.5 0.00 0.00 0.00 65 1005.7
20260505232506 23 331 12.9 20.9 0.00 0.00 0.00 64 1005.7
20260505232012 23 332 14.5 20.9 0.00 0.00 0.00 64 1005.5
20260505231507 24 326 14.5 22.5 0.00 0.00 0.00 65 1005.8
20260505231004 24 326 16.1 25.7 0.00 0.00 0.00 65 1005.7
20260505230509 24 331 17.7 25.7 0.00 0.00 0.00 63 1005.5
20260505230009 25 352 16.1 25.7 0.00 0.00 0.00 63 1005.4
20260505225507 25 319 17.7 25.7 0.00 0.00 0.00 63 1005.4
20260505225006 25 327 14.5 24.1 0.00 0.00 0.00 64 1005.5
20260505224531 25 317 14.5 20.9 0.00 0.00 0.00 63 1005.4
20260505224012 25 321 14.5 22.5 0.00 0.00 0.00 64 1005.1
20260505223514 25 308 11.3 22.5 0.00 0.00 0.00 63 1004.9
20260505223031 25 325 14.5 20.9 0.00 0.00 0.00 65 1004.9
20260505222502 25 316 16.1 25.7 0.00 0.00 0.00 63 1005.1
20260505222010 26 319 19.3 25.7 0.00 0.00 0.00 62 1005.1
20260505221522 26 316 16.1 25.7 0.00 0.00 0.00 61 1004.9
20260505221009 27 346 16.1 27.4 0.00 0.00 0.00 61 1004.8
20260505220505 27 327 17.7 27.4 0.00 0.00 0.00 60 1004.9
20260505220020 28 351 14.5 22.5 0.00 0.00 0.00 57 1004.8
20260505215510 28 331 16.1 20.9 0.00 0.00 0.00 56 1004.7
20260505215009 28 331 12.9 20.9 0.00 0.00 0.00 54 1004.6
20260505214519 28 314 16.1 22.5 0.00 0.00 0.00 52 1004.6
20260505214008 28 319 16.1 22.5 0.00 0.00 0.00 50 1004.8
20260505213507 29 320 16.1 22.5 0.00 0.00 0.00 49 1005.0
20260505213011 29 317 16.1 22.5 0.00 0.00 0.00 48 1004.9
20260505212507 29 9 14.5 20.9 0.00 0.00 0.00 50 1004.7
20260505212012 28 334 16.1 24.1 0.00 0.00 0.00 49 1004.6
20260505211525 29 339 16.1 24.1 0.00 0.00 0.00 49 1004.7
20260505211009 29 344 16.1 22.5 0.00 0.00 0.00 51 1004.8
20260505210510 30 329 16.1 24.1 0.00 0.00 0.00 53 1004.9
20260505210030 30 333 16.1 30.6 0.00 0.00 0.00 51 1005.0
20260505205507 30 327 19.3 30.6 0.00 0.00 0.00 47 1004.9
20260505205008 31 322 9.7 22.5 0.00 0.00 0.00 53 1004.9
20260505204520 31 254 12.9 20.9 0.00 0.00 0.00 53 1004.8
20260505204006 31 214 11.3 17.7 0.00 0.00 0.00 57 1004.9
20260505203507 31 218 9.7 17.7 0.00 0.00 0.00 54 1004.8
20260505203017 31 213 11.3 20.9 0.00 0.00 0.00 52 1004.9
20260505202508 31 235 12.9 20.9 0.00 0.00 0.00 55 1005.0
20260505202009 31 223 8.0 20.9 0.00 0.00 0.00 57 1004.9
20260505201518 30 207 9.7 20.9 0.00 0.00 0.00 57 1004.9
20260505201009 30 271 11.3 22.5 0.00 0.00 0.00 54 1005.1
20260505200512 30 212 11.3 29.0 0.00 0.00 0.00 54 1005.1
20260505200014 30 261 12.9 29.0 0.00 0.00 0.00 55 1005.1
20260505195511 30 254 16.1 24.1 0.00 0.00 0.00 56 1005.2
20260505195012 30 254 14.5 24.1 0.00 0.00 0.00 55 1005.2
20260505194512 30 236 11.3 25.7 0.00 0.00 0.00 58 1005.3
20260505194005 30 240 14.5 27.4 0.00 0.00 0.00 58 1005.3
20260505193507 30 257 12.9 27.4 0.00 0.00 0.00 58 1005.2
20260505193035 30 298 12.9 24.1 0.00 0.00 0.00 58 1005.2
20260505192507 30 241 14.5 24.1 0.00 0.00 0.00 59 1005.2
20260505192010 29 223 16.1 29.0 0.00 0.00 0.00 60 1005.3
20260505191522 29 230 16.1 29.0 0.00 0.00 0.00 61 1005.0
20260505191014 29 259 12.9 24.1 0.00 0.00 0.00 64 1005.1
20260505190507 29 234 12.9 25.7 0.00 0.00 0.00 63 1005.2
20260505190032 29 221 16.1 25.7 0.00 0.00 0.00 63 1005.1
20260505185513 29 224 9.7 20.9 0.00 0.00 0.00 66 1005.1
20260505185006 28 211 11.3 22.5 0.00 0.00 0.00 65 1005.1
20260505184525 28 216 14.5 22.5 0.00 0.00 0.00 64 1005.0
20260505184010 28 223 12.9 22.5 0.00 0.00 0.00 65 1005.2
20260505183511 28 199 9.7 25.7 0.00 0.00 0.00 67 1005.1
20260505183031 27 234 14.5 25.7 0.00 0.00 0.00 66 1005.3
20260505182505 27 238 14.5 22.5 0.00 0.00 0.00 66 1005.3
20260505182010 27 211 14.5 25.7 0.00 0.00 0.00 69 1005.4
20260505181517 27 210 14.5 25.7 0.00 0.00 0.00 68 1005.4
20260505181011 27 221 17.7 24.1 0.00 0.00 0.00 66 1005.4
20260505180511 27 202 16.1 33.8 0.00 0.00 0.00 67 1005.4
20260505180033 27 217 16.1 33.8 0.00 0.00 0.00 68 1005.4
20260505175507 27 192 17.7 27.4 0.00 0.00 0.00 67 1005.4
20260505175013 27 203 11.3 25.7 0.00 0.00 0.00 68 1005.5
20260505174531 27 199 14.5 33.8 0.00 0.00 0.00 69 1005.4
20260505174007 27 260 17.7 33.8 0.00 0.00 0.00 67 1005.3
20260505173509 27 201 16.1 30.6 0.00 0.00 0.00 68 1005.3
20260505173037 27 190 17.7 30.6 0.00 0.00 0.00 67 1005.2
20260505172511 27 227 16.1 30.6 0.00 0.00 0.00 69 1005.4
20260505172021 27 207 17.7 30.6 0.00 0.00 0.00 69 1005.2
20260505171527 27 198 19.3 27.4 0.00 0.00 0.00 69 1005.2
20260505171010 26 199 19.3 32.2 0.00 0.00 0.00 70 1005.3
20260505170514 26 220 17.7 33.8 0.00 0.00 0.00 70 1005.3
20260505170021 26 208 22.5 30.6 0.00 0.00 0.00 69 1005.2
20260505165506 26 209 16.1 32.2 0.00 0.00 0.00 71 1005.4
20260505165010 26 234 20.9 32.2 0.00 0.00 0.00 71 1005.3
20260505164530 26 214 17.7 25.7 0.00 0.00 0.00 74 1005.4
20260505164010 26 212 17.7 24.1 0.00 0.00 0.00 73 1005.4